Stations météo

réclame
Mon MeteoGroup
Bologna/Borgo Panigale, Italie (16140): Température de l'air & dewpoint: 18.05.2019 04:00:00 - 24.05.2019 04:00:00 (CEST)Bologna/Borgo Panigale, Italie (16140): Vitesse du vent: 18.05.2019 04:00:00 - 24.05.2019 04:00:00 (CEST)Bologna/Borgo Panigale, Italie (16140): Direction du vent: 18.05.2019 04:00:00 - 24.05.2019 04:00:00 (CEST)Bologna/Borgo Panigale, Italie (16140): reduced air pressure: 18.05.2019 04:00:00 - 24.05.2019 04:00:00 (CEST)Bologna/Borgo Panigale, Italie (16140): visibility: 18.05.2019 04:00:00 - 24.05.2019 04:00:00 (CEST)Bologna/Borgo Panigale, Italie (16140): Quantités de précipitations: 18.05.2019 04:00:00 - 24.05.2019 04:00:00 (CEST)
Date & Time tt [°C] td [°C] ff [km/h] ff [knt] dd ppp [hPa] vv [km] rr [mm]
24.05.2019 04:00:00 - - - - - - - -
24.05.2019 03:00:00 16,0 12,0 13 7 SSW - 10 -
24.05.2019 02:00:00 17,0 13,0 15 8 SSW - 10 -
24.05.2019 01:00:00 17,0 13,0 13 7 SSW - 10 -
24.05.2019 00:00:00 17,0 12,0 5 3 S - 10 -
23.05.2019 23:00:00 18,2 12,8 5 3 SSE 1014,0 10 0,0
23.05.2019 22:00:00 18,0 14,0 11 6 SE - 10 -
23.05.2019 21:00:00 21,0 14,0 8 4 E - 10 -
23.05.2019 20:00:00 22,2 14,2 5 3 E 1013,2 10 -
23.05.2019 19:00:00 23,0 14,0 5 3 E - 10 -
23.05.2019 18:00:00 23,0 13,0 8 4 ESE - 10 -
23.05.2019 17:00:00 22,4 14,1 8 4 ESE 1013,9 10 0,0
23.05.2019 16:00:00 24,0 13,0 5 3 - - 10 -
23.05.2019 15:00:00 23,0 14,0 8 4 NNE - 10 -
23.05.2019 14:00:00 21,9 14,3 5 3 - 1015,5 10 -
23.05.2019 13:00:00 21,0 14,0 5 3 NNW - 10 -
23.05.2019 12:00:00 21,0 14,0 5 3 - - 10 -
23.05.2019 11:00:00 20,2 14,7 8 4 - 1016,5 10 0,0
23.05.2019 10:00:00 19,0 14,0 8 4 NW - 10 -
23.05.2019 09:00:00 17,0 13,0 11 6 SSW - 10 -
23.05.2019 08:00:00 14,9 12,9 8 4 S 1016,5 10 -
23.05.2019 07:00:00 14,0 13,0 4 2 - - 8 -
23.05.2019 06:00:00 14,0 13,0 2 1 - - 10 -
23.05.2019 05:00:00 14,3 12,5 11 6 SW 1016,1 10 0,0
23.05.2019 04:00:00 15,0 12,0 5 3 WNW - 10 -
23.05.2019 03:00:00 15,0 12,0 8 4 SW - 10 -
23.05.2019 02:00:00 15,4 12,3 11 6 SSW 1015,6 10 -
23.05.2019 01:00:00 16,0 12,0 13 7 S - 10 -
23.05.2019 00:00:00 16,0 13,0 2 1 - - 10 -
22.05.2019 23:00:00 17,5 12,9 9 5 S 1015,1 10 0,0
22.05.2019 22:00:00 18,0 14,0 13 7 S - 10 -
22.05.2019 21:00:00 19,0 14,0 11 6 SSW - 10 -
22.05.2019 20:00:00 20,1 13,6 11 6 S 1013,7 10 -
22.05.2019 19:00:00 21,0 14,0 8 4 S - 10 -
22.05.2019 18:00:00 21,0 14,0 11 6 S - 10 -
22.05.2019 17:00:00 21,9 13,4 15 8 S 1013,6 10 0,0
22.05.2019 16:00:00 21,0 13,0 11 6 S - 10 -
22.05.2019 15:00:00 22,0 12,0 9 5 - - 10 -
22.05.2019 14:00:00 21,8 12,9 9 5 ENE 1014,1 10 -
22.05.2019 13:00:00 22,0 14,0 5 3 - - 10 -
22.05.2019 12:00:00 21,0 14,0 4 2 - - 10 -
22.05.2019 11:00:00 18,8 12,7 8 4 NW 1014,8 10 0,0
22.05.2019 10:00:00 18,0 12,0 9 5 WNW - 10 -
22.05.2019 09:00:00 18,0 12,0 11 6 W - 10 -
22.05.2019 08:00:00 16,8 10,4 13 7 WSW 1014,2 10 -
22.05.2019 07:00:00 14,0 9,0 9 5 SSW - 10 -
22.05.2019 06:00:00 13,0 9,0 9 5 WSW - 10 -
22.05.2019 05:00:00 13,7 9,2 11 6 SSW 1013,0 10 0,0
22.05.2019 04:00:00 14,0 9,0 5 3 SSW - 10 -
22.05.2019 03:00:00 13,0 9,0 4 2 - - 10 -
22.05.2019 02:00:00 13,9 9,1 2 1 - 1012,6 10 -
22.05.2019 01:00:00 15,0 9,0 9 5 S - 10 -
22.05.2019 00:00:00 16,0 12,0 9 5 SSW - 10 -
21.05.2019 23:00:00 17,3 10,7 13 7 W 1013,0 10 0,0
21.05.2019 22:00:00 18,0 9,0 15 8 WSW - 10 -
21.05.2019 21:00:00 20,0 9,0 11 6 WSW - 10 -
21.05.2019 20:00:00 21,0 9,0 13 7 SW - 10 -
21.05.2019 19:00:00 21,0 11,0 16 9 SSW - 10 -
21.05.2019 18:00:00 22,0 14,0 15 8 S - 10 -
21.05.2019 17:00:00 21,7 12,5 11 6 SE 1009,5 10 0,0
21.05.2019 16:00:00 23,0 16,0 11 6 NE - 10 -
21.05.2019 15:00:00 23,0 16,0 11 6 NE - 10 -
21.05.2019 14:00:00 22,0 14,4 13 7 NE 1009,0 10 -
21.05.2019 13:00:00 21,0 14,0 9 5 NNE - 10 -
21.05.2019 12:00:00 20,0 13,0 5 3 - - 10 -
21.05.2019 11:00:00 20,1 13,6 5 3 NE 1008,6 10 0,0
21.05.2019 10:00:00 18,0 11,0 4 2 - - 10 -
21.05.2019 09:00:00 16,0 10,0 4 2 - - 10 -
21.05.2019 08:00:00 14,7 10,6 8 4 SSW 1007,9 10 -
21.05.2019 07:00:00 13,0 10,0 8 4 W - 10 -
21.05.2019 06:00:00 14,0 10,0 11 6 SSW - 10 -
21.05.2019 05:00:00 13,9 10,0 11 6 SSW 1007,0 10 0,0
21.05.2019 04:00:00 14,0 10,0 13 7 S - 10 -
21.05.2019 03:00:00 14,0 10,0 9 5 S - 10 -
21.05.2019 02:00:00 13,9 10,5 2 1 - 1007,5 10 -
21.05.2019 01:00:00 14,0 10,0 5 3 S - 10 -
21.05.2019 00:00:00 15,0 10,0 8 4 SW - 10 -
20.05.2019 23:00:00 14,7 11,4 9 5 SW 1007,5 10 0,0
20.05.2019 22:00:00 16,0 11,0 8 4 S - 10 -
20.05.2019 21:00:00 17,0 12,0 4 2 - - 10 -
20.05.2019 20:00:00 17,4 12,3 4 2 - 1006,7 10 -
20.05.2019 19:00:00 18,0 12,0 9 5 NW - 10 -
20.05.2019 18:00:00 18,0 13,0 13 7 NNW - 10 -
20.05.2019 17:00:00 20,7 12,0 4 2 - 1005,4 10 0,0
20.05.2019 16:00:00 20,0 12,0 5 3 NNE - 10 -
20.05.2019 15:00:00 18,0 13,0 11 6 N - 10 -
20.05.2019 14:00:00 19,4 11,2 5 3 - 1005,9 10 -
20.05.2019 13:00:00 18,0 12,0 5 3 N - 10 -
20.05.2019 12:00:00 17,0 13,0 4 2 - - 10 -
20.05.2019 11:00:00 16,7 12,3 2 1 - 1005,7 10 0,0
20.05.2019 10:00:00 15,0 13,0 2 1 - - 10 -
20.05.2019 09:00:00 14,0 13,0 4 2 - - 10 -
20.05.2019 08:00:00 13,8 12,5 4 2 - 1004,9 10 -
20.05.2019 07:00:00 13,0 12,0 9 5 SW - 10 -
20.05.2019 06:00:00 13,0 12,0 9 5 WSW - 10 -
20.05.2019 05:00:00 12,7 12,2 5 3 W 1004,6 - 0,0
20.05.2019 04:00:00 13,0 12,0 4 2 SW - 10 -
20.05.2019 03:00:00 13,0 13,0 5 3 WSW - 8 -
20.05.2019 02:00:00 13,1 12,5 5 3 WSW 1004,9 5 -
20.05.2019 01:00:00 13,0 13,0 8 4 WSW - 3,5 -
20.05.2019 00:00:00 13,0 13,0 5 3 W - 6 -
19.05.2019 23:00:00 13,3 12,5 5 3 WSW 1005,0 10 0,0
19.05.2019 22:00:00 13,0 13,0 8 4 WSW - 10 -
19.05.2019 21:00:00 13,0 13,0 9 5 W - 9 -
19.05.2019 20:00:00 13,7 13,0 5 3 WNW 1004,4 9 -
19.05.2019 19:00:00 15,0 13,0 11 6 WSW - 10 -
19.05.2019 18:00:00 16,0 14,0 5 3 S - 7 -
19.05.2019 17:00:00 16,6 13,2 4 2 - 1003,8 10 0,0
19.05.2019 16:00:00 16,0 13,0 4 2 - - 10 -
19.05.2019 15:00:00 15,0 13,0 9 5 W - 10 -
19.05.2019 14:00:00 15,0 12,7 5 3 WNW 1004,1 10 -
19.05.2019 13:00:00 15,0 13,0 9 5 WNW - 8 -
19.05.2019 12:00:00 15,0 13,0 8 4 WNW - 7 -
19.05.2019 11:00:00 14,3 12,5 9 5 WNW 1004,3 8 0,0
19.05.2019 10:00:00 14,0 12,0 9 5 W - 8 -
19.05.2019 09:00:00 14,0 12,0 11 6 WNW - 7 -
19.05.2019 08:00:00 13,1 12,2 11 6 W 1004,3 6 -
19.05.2019 07:00:00 13,0 12,0 8 4 W - 4,0 -
19.05.2019 06:00:00 13,0 12,0 8 4 W - 3,5 -
19.05.2019 05:00:00 12,6 12,1 8 4 WNW 1004,5 3,0 0,0
19.05.2019 04:00:00 13,0 12,0 5 3 WSW - 5 -
19.05.2019 03:00:00 13,0 12,0 8 4 NW - 4,0 -
19.05.2019 02:00:00 13,0 12,4 11 6 WSW 1005,5 3,5 -
19.05.2019 01:00:00 13,0 13,0 9 5 W - 4,0 -
19.05.2019 00:00:00 13,0 13,0 8 4 W - 10 -
18.05.2019 23:00:00 13,6 12,7 8 4 WSW 1006,0 10 0,0
18.05.2019 22:00:00 13,0 13,0 5 3 W - 9 -
18.05.2019 21:00:00 14,0 13,0 8 4 SSE - 8 -
18.05.2019 20:00:00 14,5 13,8 9 5 ENE 1005,2 6 -
18.05.2019 19:00:00 15,0 14,0 13 7 NE - 5 -
18.05.2019 18:00:00 14,0 13,0 15 8 NNE - 4,0 -
18.05.2019 17:00:00 13,9 12,9 13 7 NE 1005,1 4,5 0,0
18.05.2019 16:00:00 14,0 13,0 16 9 NE - 4,5 -
18.05.2019 15:00:00 14,0 12,0 15 8 NE - 3,5 -
18.05.2019 14:00:00 13,8 12,5 15 8 ENE 1005,6 10 -
18.05.2019 13:00:00 14,0 12,0 18 10 ENE - 10 -
18.05.2019 12:00:00 14,0 13,0 4 2 - - 8 -
18.05.2019 11:00:00 13,3 12,0 11 6 E 1006,1 10 0,0
18.05.2019 10:00:00 14,0 12,0 15 8 ENE - 10 -
18.05.2019 09:00:00 13,0 12,0 13 7 ENE - 10 -
18.05.2019 08:00:00 13,0 11,0 13 7 ENE - 10 -
18.05.2019 07:00:00 13,0 12,0 15 8 E - 10 -
18.05.2019 06:00:00 13,0 12,0 11 6 E - 7 -
18.05.2019 05:00:00 13,0 12,4 11 6 E 1006,3 5 0,0
18.05.2019 04:00:00 13,0 13,0 11 6 ENE - 7 -

tt = Température de l'air
td = dewpoint
ff = Vitesse du vent
dd = Direction du vent
ppp = reduced air pressure
vv = visibility
rr = Quantités de précipitations

stations d'obs. à proximité